St. George, AK

5:50 PM AKDT on May 24, 2017 (GMT -0800)
Saint George

Weather History for PAPB - June, 2013

Change the Weather History Date:

Sunday, June 30, 2013

  Actual Average Record
Temperature  
Mean Temperature 44 °F -  
Max Temperature 46 °F 46 °F 57 °F (2016)
Min Temperature 42 °F 40 °F 39 °F (2007)
Degree Days  
Heating Degree Days 21    
Moisture  
Dew Point 45 °F    
Average Humidity 100    
Maximum Humidity 100    
Minimum Humidity 93    
Precipitation  
Precipitation 0.11 in - - ()
Sea Level Pressure  
Sea Level Pressure 29.27 in    
Wind  
Wind Speed 24 mph (South)    
Max Wind Speed 33 mph    
Max Gust Speed 41 mph    
Visibility 4 miles    
Events Rain    
Averages and records for this station are not official NWS values.
T = Trace of Precipitation, MM = Missing Value Source: NWS Daily Summary

Daily Weather History Graph

Daily Weather History Graph

Search for Another Location

Airport or City:

Trip Planner

Search our weather history database for the weather conditions in past years. The results will help you decide how hot, cold, wet, or windy it might be!

Date:

Astronomy

Jun. 30, 2013 Rise Set
Actual Time 6:32 AM AKDT 12:12 AM AKDT
Civil Twilight 5:27 AM AKDT 1:16 AM AKDT
Nautical Twilight 3:54 AM AKDT 2:50 AM AKDT
Astronomical Twilight Sun does not set Sun does not set
Moon 2:38 AM AKDT (6/30) 4:47 PM AKDT (6/30)
Length of Visible Light 19h 48m
Length of Day
17h 39m
Last Quarter, 44% of the Moon is Illuminated
Jun 30
Last Quarter
Jul 7
New
Jul 15
First Quarter
Jul 22
Full
Jul 29
Last Quarter

Hourly Weather History & Observations

Time (AKDT) Temp. Windchill Dew Point Humidity Pressure Visibility Wind Dir Wind Speed Gust Speed Precip Events Conditions
12:16 AM 46.4 °F 39.2 °F 46.4 °F 100% 29.48 in 5.0 mi SSE 18.4 mph - N/A   Overcast
12:53 AM 46.0 °F 38.8 °F 46.0 °F 100% 29.43 in 5.0 mi SSE 18.4 mph 26.5 mph N/A   Overcast
1:21 AM 46.4 °F 38.7 °F 46.4 °F 100% 29.45 in 1.8 mi SSE 20.7 mph - N/A   Overcast
1:33 AM 46.4 °F 38.5 °F 46.4 °F 100% 29.45 in 1.0 mi SSE 21.9 mph 29.9 mph N/A   Mist
1:53 AM 46.0 °F 38.3 °F 46.0 °F 100% 29.41 in 1.0 mi SSE 20.7 mph 27.6 mph 0.00 in   Mist
2:09 AM 46.4 °F 38.3 °F 46.4 °F 100% 29.43 in 2.0 mi SSE 23.0 mph 29.9 mph N/A   Overcast
2:30 AM 46.4 °F 38.3 °F 46.4 °F 100% 29.42 in 4.0 mi SSE 23.0 mph 33.4 mph 0.01 in Rain Light Rain
2:53 AM 46.9 °F - 46.9 °F 100% 29.38 in 3.0 mi SSE 25.3 mph 35.7 mph 0.03 in Rain Light Rain
3:36 AM 46.4 °F 37.5 °F 46.4 °F 100% 29.38 in 2.5 mi South 27.6 mph 33.4 mph 0.00 in Rain Light Rain
3:53 AM 46.9 °F - 46.9 °F 100% 29.34 in 3.0 mi South 26.5 mph 34.5 mph 0.00 in   Overcast
4:46 AM 46.4 °F 37.9 °F 46.4 °F 100% 29.35 in 7.0 mi South 25.3 mph 33.4 mph N/A   Overcast
4:53 AM 46.0 °F 37.2 °F 46.0 °F 100% 29.32 in 9.0 mi South 26.5 mph 32.2 mph N/A   Overcast
5:10 AM 44.6 °F 36.1 °F 44.6 °F 100% 29.35 in 10.0 mi South 21.9 mph 32.2 mph N/A   Overcast
5:18 AM 44.6 °F 35.9 °F 44.6 °F 100% 29.35 in 10.0 mi South 23.0 mph 29.9 mph N/A   Overcast
5:29 AM 44.6 °F 35.9 °F 44.6 °F 100% 29.34 in 10.0 mi South 23.0 mph 31.1 mph N/A   Overcast
5:50 AM 44.6 °F 35.3 °F 44.6 °F 100% 29.33 in 9.0 mi South 26.5 mph 31.1 mph N/A   Overcast
5:53 AM 45.0 °F 36.2 °F 45.0 °F 100% 29.30 in 9.0 mi South 24.2 mph 29.9 mph N/A   Overcast
6:53 AM 44.1 °F 35.2 °F 44.1 °F 100% 29.29 in 3.0 mi South 23.0 mph 31.1 mph N/A   Overcast
7:53 AM 44.1 °F 35.2 °F 44.1 °F 100% 29.28 in 5.0 mi South 23.0 mph - N/A   Overcast
8:26 AM 44.6 °F 35.7 °F 44.6 °F 100% 29.31 in 2.5 mi South 24.2 mph 32.2 mph N/A   Overcast
8:35 AM 44.6 °F 35.5 °F 44.6 °F 100% 29.30 in 3.0 mi South 25.3 mph 31.1 mph N/A   Overcast
8:53 AM 44.1 °F 34.8 °F 44.1 °F 100% 29.27 in 2.5 mi South 25.3 mph 31.1 mph N/A   Overcast
9:33 AM 44.6 °F 35.9 °F 44.6 °F 100% 29.30 in 4.0 mi South 23.0 mph 33.4 mph N/A   Overcast
9:53 AM 44.1 °F 35.0 °F 44.1 °F 100% 29.26 in 5.0 mi South 24.2 mph 34.5 mph N/A   Overcast
10:36 AM 44.6 °F 35.1 °F 44.6 °F 100% 29.28 in 2.5 mi South 27.6 mph 33.4 mph 0.00 in Rain Light Rain
10:53 AM 44.1 °F 34.6 °F 44.1 °F 100% 29.25 in 3.0 mi South 26.5 mph 34.5 mph 0.00 in   Overcast
11:36 AM 44.6 °F 35.7 °F 44.6 °F 100% 29.28 in 3.0 mi South 24.2 mph 34.5 mph 0.01 in   Overcast
11:46 AM 44.6 °F 35.5 °F 44.6 °F 100% 29.28 in 2.5 mi South 25.3 mph 33.4 mph 0.01 in   Overcast
11:53 AM 44.1 °F 34.6 °F 44.1 °F 100% 29.24 in 2.5 mi South 26.5 mph 33.4 mph 0.01 in   Overcast
12:02 PM 44.6 °F 35.7 °F 44.6 °F 100% 29.27 in 5.0 mi South 24.2 mph 33.4 mph N/A   Overcast
12:53 PM 44.1 °F 35.0 °F 44.1 °F 100% 29.23 in 3.0 mi South 24.2 mph 34.5 mph 0.00 in Rain Light Rain
1:53 PM 44.1 °F 35.0 °F 44.1 °F 100% 29.21 in 2.5 mi SSW 24.2 mph 32.2 mph 0.03 in Rain Light Rain
2:05 PM 44.6 °F 35.3 °F 44.6 °F 100% 29.25 in 3.0 mi South 26.5 mph 33.4 mph 0.00 in Rain Light Rain
2:13 PM 44.6 °F 35.7 °F 44.6 °F 100% 29.25 in 3.0 mi South 24.2 mph 34.5 mph 0.00 in   Overcast
2:21 PM 44.6 °F 35.9 °F 44.6 °F 100% 29.24 in 2.5 mi SSW 23.0 mph 33.4 mph 0.00 in Rain Light Rain
2:45 PM 44.6 °F 35.3 °F 44.6 °F 100% 29.23 in 2.5 mi South 26.5 mph 34.5 mph 0.00 in   Overcast
2:53 PM 44.1 °F 34.2 °F 44.1 °F 100% 29.20 in 3.0 mi South 28.8 mph 39.1 mph 0.00 in   Overcast
3:03 PM 44.6 °F 35.3 °F 44.6 °F 100% 29.23 in 3.0 mi South 26.5 mph 34.5 mph N/A   Overcast
3:53 PM 44.1 °F 34.2 °F 43.0 °F 96% 29.17 in 3.0 mi South 28.8 mph 38.0 mph 0.00 in Rain Light Rain
4:53 PM 44.1 °F 34.6 °F 44.1 °F 100% 29.14 in 3.0 mi South 26.5 mph 39.1 mph 0.02 in Rain Light Rain
5:23 PM 44.6 °F 34.9 °F 42.8 °F 93% 29.16 in 2.5 mi South 28.8 mph 34.5 mph 0.00 in Rain Light Rain
5:42 PM 44.6 °F 34.2 °F 44.6 °F 100% 29.16 in 4.0 mi SSW 33.4 mph 41.4 mph 0.01 in Rain Light Rain
5:53 PM 44.1 °F 34.4 °F 44.1 °F 100% 29.13 in 4.0 mi SSW 27.6 mph 39.1 mph 0.01 in   Overcast
6:19 PM 44.6 °F 34.6 °F 42.8 °F 93% 29.16 in 5.0 mi SSW 31.1 mph 39.1 mph N/A   Overcast
6:53 PM 44.1 °F 34.2 °F 44.1 °F 100% 29.13 in 4.0 mi SSW 28.8 mph - N/A   Overcast
7:30 PM 44.6 °F 35.3 °F 44.6 °F 100% 29.17 in 4.0 mi SSW 26.5 mph 36.8 mph N/A   Overcast
7:53 PM 44.1 °F 34.6 °F 44.1 °F 100% 29.13 in 4.0 mi SSW 26.5 mph 33.4 mph 0.01 in   Overcast
8:53 PM 44.1 °F 34.0 °F 44.1 °F 100% 29.13 in 3.0 mi SW 29.9 mph 38.0 mph N/A   Overcast
9:53 PM 43.0 °F 33.1 °F 43.0 °F 100% 29.14 in 3.0 mi SW 26.5 mph 35.7 mph N/A   Overcast
10:20 PM 42.8 °F 33.1 °F 42.8 °F 100% 29.18 in 2.5 mi SW 25.3 mph 34.5 mph N/A   Overcast
10:34 PM 42.8 °F 32.9 °F 42.8 °F 100% 29.18 in 1.8 mi SW 26.5 mph 34.5 mph N/A   Overcast
10:49 PM 42.8 °F 32.9 °F 42.8 °F 100% 29.19 in 1.2 mi SW 26.5 mph 34.5 mph N/A   Overcast
10:53 PM 43.0 °F 33.1 °F 43.0 °F 100% 29.16 in 1.2 mi SW 26.5 mph - N/A   Overcast
11:42 PM 42.8 °F 33.5 °F 42.8 °F 100% 29.21 in 2.0 mi SW 23.0 mph - N/A   Overcast
11:53 PM 42.1 °F 32.6 °F 42.1 °F 100% 29.18 in 1.5 mi SW 23.0 mph - 0.00 in Rain Light Rain